Tracking 29606 objects as of 19-Sep-2024
HD Live streaming from Space Station
objects crossing your sky now

SITRO-AIS-51

Track SITRO-AIS-51 now!
10-day predictions
SITRO-AIS-51 is classified as:


NORAD ID: 59062
Int'l Code: 2024-039M
Perigee: 459.0 km
Apogee: 474.0 km
Inclination: 97.4 °
Period: 93.8 minutes
Semi major axis: 6837 km
RCS: Unknown
Launch date: February 29, 2024
Source: (TBD)
Launch site: VOSTOCHNY COSMODROME (VOSTO)

Uplink (MHz):
Downlink (MHz): 401.200
Beacon (MHz):
Mode: 2k4 GMSK_USP
Call sign:
Status: Unknown

Your satellite tracking list
Your tracking list is empty




NASA's NSSDC Master Catalog

Two Line Element Set (TLE):
1 59062U 24039M   24262.84145626  .00041682  00000-0  12017-2 0  9996
2 59062  97.3993 224.6525 0010974 231.4311 128.5950 15.35540317 30935
Source of the keplerian elements: AFSPC